Berea, KY

2:04 AM EST on February 14, 2016 (GMT -0500)
Richmond

Weather History for KI39 - September, 2012

Change the Weather History Date:

Friday, September 14, 2012

  Actual Average (KLOZ) Record (KLOZ)
Temperature  
Mean Temperature 68 °F 69 °F  
Max Temperature 80 °F 80 °F 93 °F (1980)
Min Temperature 57 °F 58 °F 36 °F (1964)
Degree Days  
Heating Degree Days 0 1  
Month to date heating degree days 4  
Since 1 July heating degree days 5  
Cooling Degree Days 4 5  
Month to date cooling degree days 92  
Year to date cooling degree days 1116  
Growing Degree Days 18 (Base 50)    
Moisture  
Dew Point 59 °F    
Average Humidity 73    
Maximum Humidity 100    
Minimum Humidity 42    
Precipitation  
Precipitation 0.00 in 0.12 in 1.05 in (1989)
Month to date precipitation 1.56  
Year to date precipitation 34.24  
Sea Level Pressure  
Sea Level Pressure 30.24 in    
Wind  
Wind Speed 3 mph (WNW)    
Max Wind Speed 9 mph    
Max Gust Speed -    
Visibility 9 miles    
Events      
T = Trace of Precipitation, MM = Missing Value Source: NWS Daily Summary

Daily Weather History Graph

Daily Weather History Graph

Search for Another Location

Airport or City:

Trip Planner

Search our weather history database for the weather conditions in past years. The results will help you decide how hot, cold, wet, or windy it might be!

Date:

Astronomy

Sep. 14, 2012 Rise Set
Actual Time 7:18 AM EDT 7:45 PM EDT
Civil Twilight 6:52 AM EDT 8:12 PM EDT
Nautical Twilight 6:21 AM EDT 8:42 PM EDT
Astronomical Twilight 5:50 AM EDT 9:14 PM EDT
Moon 5:43 AM EDT 6:41 PM EDT
Length of Visible Light 13h 19m
Length of Day
12h 27m
Waning Crescent, 3% of the Moon is Illuminated
Sep 14
Waning Crescent
Sep 15
New
Sep 22
First Quarter
Sep 29
Full
Oct 8
Last Quarter

Hourly Weather History & Observations

Time (EDT) Temp. Heat Index Dew Point Humidity Pressure Visibility Wind Dir Wind Speed Gust Speed Precip Events Conditions
12:15 AM 66.2 °F - 60.8 °F 83% 30.26 in 10.0 mi Calm Calm - N/A   Clear
12:35 AM 62.6 °F - 59.0 °F 88% 30.26 in 10.0 mi Calm Calm - N/A   Clear
12:55 AM 64.4 °F - 60.8 °F 88% 30.26 in 10.0 mi Calm Calm - N/A   Clear
1:15 AM 64.4 °F - 60.8 °F 88% 30.26 in 10.0 mi Calm Calm - N/A   Clear
1:35 AM 62.6 °F - 60.8 °F 94% 30.26 in 10.0 mi Calm Calm - N/A   Clear
1:55 AM 62.6 °F - 59.0 °F 88% 30.26 in 10.0 mi Calm Calm - N/A   Clear
2:15 AM 60.8 °F - 59.0 °F 94% 30.26 in 7.0 mi Calm Calm - N/A   Clear
2:35 AM 60.8 °F - 59.0 °F 94% 30.25 in 5.0 mi Calm Calm - N/A   Clear
2:55 AM 60.8 °F - 59.0 °F 94% 30.24 in 5.0 mi SSE 4.6 mph - N/A   Clear
3:15 AM 60.8 °F - 59.0 °F 94% 30.24 in 7.0 mi SSE 3.5 mph - N/A   Clear
3:35 AM 60.8 °F - 59.0 °F 94% 30.24 in 10.0 mi Calm Calm - N/A   Clear
3:55 AM 59.0 °F - 57.2 °F 94% 30.23 in 5.0 mi Calm Calm - N/A   Clear
4:15 AM 57.2 °F - 55.4 °F 94% 30.24 in 5.0 mi Calm Calm - N/A   Clear
4:35 AM 59.0 °F - 59.0 °F 100% 30.24 in 7.0 mi Calm Calm - N/A   Clear
4:55 AM 59.0 °F - 59.0 °F 100% 30.24 in 7.0 mi Calm Calm - N/A   Clear
5:15 AM 59.0 °F - 57.2 °F 94% 30.24 in 7.0 mi Calm Calm - N/A   Clear
5:35 AM 59.0 °F - 57.2 °F 94% 30.24 in 7.0 mi Calm Calm - N/A   Clear
5:55 AM 59.0 °F - 57.2 °F 94% 30.24 in 7.0 mi SSW 4.6 mph - N/A   Clear
6:15 AM 60.8 °F - 57.2 °F 88% 30.24 in 10.0 mi South 4.6 mph - N/A   Clear
6:35 AM 59.0 °F - 57.2 °F 94% 30.25 in 10.0 mi Calm Calm - N/A   Clear
6:55 AM 59.0 °F - 57.2 °F 94% 30.25 in 7.0 mi Calm Calm - N/A   Clear
7:15 AM 59.0 °F - 57.2 °F 94% 30.26 in 7.0 mi Calm Calm - N/A   Scattered Clouds
7:35 AM 59.0 °F - 57.2 °F 94% 30.26 in 4.0 mi SE 4.6 mph - N/A   Scattered Clouds
7:55 AM 59.0 °F - 57.2 °F 94% 30.26 in 7.0 mi Calm Calm - N/A   Clear
8:15 AM 60.8 °F - 59.0 °F 94% 30.26 in 7.0 mi Calm Calm - N/A   Clear
8:35 AM 62.6 °F - 59.0 °F 88% 30.26 in 10.0 mi Calm Calm - N/A   Clear
8:55 AM 66.2 °F - 59.0 °F 78% 30.26 in 10.0 mi SSW 3.5 mph - N/A   Clear
9:15 AM 68.0 °F - 59.0 °F 73% 30.26 in 10.0 mi SSW 4.6 mph - N/A   Clear
9:35 AM 69.8 °F - 59.0 °F 68% 30.26 in 10.0 mi WSW 6.9 mph - N/A   Clear
9:55 AM 69.8 °F - 60.8 °F 73% 30.26 in 10.0 mi WSW 6.9 mph - N/A   Clear
10:15 AM 71.6 °F - 59.0 °F 64% 30.26 in 10.0 mi West 6.9 mph - N/A   Clear
10:35 AM 71.6 °F - 59.0 °F 64% 30.27 in 10.0 mi West 5.8 mph - N/A   Clear
10:55 AM 73.4 °F - 59.0 °F 61% 30.27 in 10.0 mi West 6.9 mph - N/A   Clear
11:15 AM 75.2 °F - 59.0 °F 57% 30.27 in 7.0 mi West 6.9 mph - N/A   Clear
11:35 AM 75.2 °F - 59.0 °F 57% 30.27 in 10.0 mi West 6.9 mph - N/A   Clear
12:15 PM 77.0 °F - 59.0 °F 54% 30.26 in 10.0 mi NW 6.9 mph - N/A   Clear
12:35 PM 77.0 °F - 59.0 °F 54% 30.26 in 10.0 mi West 8.1 mph - N/A   Scattered Clouds
12:55 PM 78.8 °F - 59.0 °F 51% 30.26 in 10.0 mi WNW 5.8 mph - N/A   Scattered Clouds
1:15 PM 78.8 °F - 57.2 °F 47% 30.25 in 10.0 mi NW 6.9 mph - N/A   Mostly Cloudy
1:35 PM 78.8 °F - 59.0 °F 51% 30.25 in 10.0 mi West 3.5 mph - N/A   Scattered Clouds
1:55 PM 78.8 °F - 57.2 °F 47% 30.24 in 10.0 mi West 5.8 mph - N/A   Mostly Cloudy
2:15 PM 78.8 °F - 55.4 °F 44% 30.24 in 10.0 mi Calm Calm - N/A   Scattered Clouds
2:35 PM 78.8 °F - 57.2 °F 47% 30.23 in 10.0 mi NW 8.1 mph - N/A   Mostly Cloudy
3:15 PM 80.6 °F 80.8 °F 57.2 °F 45% 30.22 in 10.0 mi WNW 5.8 mph - N/A   Scattered Clouds
3:55 PM 80.6 °F 80.5 °F 55.4 °F 42% 30.21 in 10.0 mi West 5.8 mph - N/A   Clear
4:15 PM 80.6 °F 80.5 °F 55.4 °F 42% 30.21 in 7.0 mi Calm Calm - N/A   Clear
4:35 PM 80.6 °F 80.5 °F 55.4 °F 42% 30.21 in 10.0 mi WNW 6.9 mph - N/A   Clear
4:55 PM 78.8 °F - 57.2 °F 47% 30.21 in 10.0 mi Calm Calm - N/A   Clear
5:15 PM 78.8 °F - 57.2 °F 47% 30.20 in 10.0 mi WSW 4.6 mph - N/A   Scattered Clouds
5:35 PM 78.8 °F - 59.0 °F 51% 30.21 in 10.0 mi West 3.5 mph - N/A   Scattered Clouds
5:55 PM 77.0 °F - 59.0 °F 54% 30.21 in 10.0 mi West 3.5 mph - N/A   Clear
6:15 PM 77.0 °F - 60.8 °F 57% 30.21 in 10.0 mi Calm Calm - N/A   Clear
6:35 PM 77.0 °F - 60.8 °F 57% 30.21 in 10.0 mi WNW 9.2 mph - N/A   Mostly Cloudy
6:55 PM 75.2 °F - 59.0 °F 57% 30.22 in 10.0 mi NW 5.8 mph - N/A   Mostly Cloudy
7:15 PM 75.2 °F - 59.0 °F 57% 30.21 in 10.0 mi NW 4.6 mph - N/A   Overcast
7:35 PM 75.2 °F - 59.0 °F 57% 30.21 in 10.0 mi NW 6.9 mph - N/A   Overcast
7:55 PM 73.4 °F - 60.8 °F 65% 30.22 in 10.0 mi NNW 5.8 mph - N/A   Overcast
8:15 PM 71.6 °F - 62.6 °F 73% 30.22 in 10.0 mi North 9.2 mph - N/A   Overcast
8:35 PM 71.6 °F - 62.6 °F 73% 30.23 in 10.0 mi North 5.8 mph - N/A   Overcast
8:55 PM 69.8 °F - 62.6 °F 78% 30.24 in 10.0 mi North 9.2 mph - N/A   Overcast
9:15 PM 68.0 °F - 60.8 °F 78% 30.24 in 7.0 mi NNE 8.1 mph - N/A   Overcast
9:35 PM 68.0 °F - 60.8 °F 78% 30.25 in 10.0 mi NNE 5.8 mph - N/A   Overcast
9:55 PM 66.2 °F - 60.8 °F 83% 30.25 in 10.0 mi NNE 8.1 mph - N/A   Overcast
10:15 PM 66.2 °F - 59.0 °F 78% 30.26 in 10.0 mi North 4.6 mph - N/A   Overcast
10:55 PM 66.2 °F - 59.0 °F 78% 30.27 in 10.0 mi North 5.8 mph - N/A   Overcast
11:15 PM 64.4 °F - 59.0 °F 83% 30.27 in 10.0 mi North 5.8 mph - N/A   Overcast
11:35 PM 64.4 °F - 59.0 °F 83% 30.27 in 10.0 mi NNE 4.6 mph - N/A   Overcast
11:55 PM 64.4 °F - 59.0 °F 83% 30.27 in 10.0 mi NNE 4.6 mph - N/A   Overcast